Time,TemperatureF,DewpointF,PressureIn,WindDirection,WindDirectionDegrees,WindSpeedMPH,WindSpeedGustMPH,Humidity,HourlyPrecipIn,Conditions,Clouds,dailyrainin,SoftwareType,DateUTC
2013-02-25 00:02:00,23.0,23.0,30.09,WNW,294,0.0,0.0,99,0.00,,,0.00,,2013-02-25 06:02:00,
2013-02-25 00:11:00,23.0,23.0,30.09,WNW,294,0.0,0.0,99,0.00,,,0.00,,2013-02-25 06:11:00,
2013-02-25 00:21:00,24.0,24.0,30.09,WNW,294,0.0,0.0,99,0.00,,,0.00,,2013-02-25 06:21:00,
2013-02-25 00:31:00,24.0,24.0,30.09,WNW,294,0.0,0.0,99,0.00,,,0.00,,2013-02-25 06:31:00,
2013-02-25 00:41:00,24.0,24.0,30.09,WNW,294,0.0,0.0,99,0.00,,,0.00,,2013-02-25 06:41:00,
2013-02-25 00:52:00,24.0,24.0,30.08,WNW,294,0.0,0.0,99,0.00,,,0.00,,2013-02-25 06:52:00,
2013-02-25 01:01:00,23.0,23.0,30.08,NNW,332,5.0,6.0,99,0.00,,,0.00,,2013-02-25 07:01:00,
2013-02-25 01:11:00,23.0,23.0,30.07,NNW,328,5.0,6.0,99,0.00,,,0.00,,2013-02-25 07:11:00,
2013-02-25 01:21:00,23.0,23.0,30.07,NNW,328,5.0,6.0,99,0.00,,,0.00,,2013-02-25 07:21:00,
2013-02-25 01:31:00,23.0,23.0,30.07,NNW,330,5.0,5.0,99,0.00,,,0.00,,2013-02-25 07:31:00,
2013-02-25 01:41:00,23.0,23.0,30.07,NNW,330,5.0,5.0,99,0.00,,,0.00,,2013-02-25 07:41:00,
2013-02-25 01:52:00,23.0,23.0,30.07,NW,322,3.0,5.0,99,0.00,,,0.00,,2013-02-25 07:52:00,
2013-02-25 02:01:00,23.0,23.0,30.06,NNW,331,6.0,6.0,99,0.00,,,0.00,,2013-02-25 08:01:00,
2013-02-25 02:11:00,23.0,23.0,30.06,NNW,347,5.0,5.0,99,0.00,,,0.00,,2013-02-25 08:11:00,
2013-02-25 02:21:00,23.0,23.0,30.06,NNW,347,5.0,5.0,99,0.00,,,0.00,,2013-02-25 08:21:00,
2013-02-25 02:31:00,23.0,23.0,30.07,NW,324,3.0,5.0,99,0.00,,,0.00,,2013-02-25 08:31:00,
2013-02-25 02:41:00,23.0,23.0,30.07,NW,324,3.0,5.0,99,0.00,,,0.00,,2013-02-25 08:41:00,
2013-02-25 02:52:00,23.0,23.0,30.08,NW,312,2.0,3.0,99,0.00,,,0.00,,2013-02-25 08:52:00,
2013-02-25 03:01:00,23.0,23.0,30.08,North,350,0.0,0.0,99,0.00,,,0.00,,2013-02-25 09:01:00,
2013-02-25 03:12:00,23.0,23.0,30.08,North,350,0.0,0.0,99,0.00,,,0.00,,2013-02-25 09:12:00,
2013-02-25 03:21:00,24.0,24.0,30.07,North,350,0.0,0.0,99,0.00,,,0.00,,2013-02-25 09:21:00,
2013-02-25 03:31:00,23.0,23.0,30.08,North,350,0.0,0.0,99,0.00,,,0.00,,2013-02-25 09:31:00,
2013-02-25 03:41:00,23.0,23.0,30.08,North,350,0.0,0.0,99,0.00,,,0.00,,2013-02-25 09:41:00,
2013-02-25 03:52:00,23.0,23.0,30.08,North,350,0.0,0.0,99,0.00,,,0.00,,2013-02-25 09:52:00,
2013-02-25 04:01:00,23.0,23.0,30.07,North,350,0.0,0.0,99,0.00,,,0.00,,2013-02-25 10:01:00,
2013-02-25 04:11:00,23.0,23.0,30.06,NW,318,5.0,5.0,99,0.00,,,0.00,,2013-02-25 10:11:00,
2013-02-25 04:21:00,23.0,23.0,30.06,NW,318,5.0,5.0,99,0.00,,,0.00,,2013-02-25 10:21:00,
2013-02-25 04:31:00,23.0,23.0,30.06,NNW,330,2.0,5.0,99,0.00,,,0.00,,2013-02-25 10:31:00,
2013-02-25 04:42:00,23.0,23.0,30.06,NNW,330,2.0,5.0,99,0.00,,,0.00,,2013-02-25 10:42:00,
2013-02-25 04:52:00,22.0,22.0,30.07,NW,316,0.0,0.0,99,0.00,,,0.00,,2013-02-25 10:52:00,
2013-02-25 05:01:00,22.0,22.0,30.06,NW,316,0.0,0.0,99,0.00,,,0.00,,2013-02-25 11:01:00,
2013-02-25 05:11:00,22.0,22.0,30.06,NW,316,0.0,0.0,99,0.00,,,0.00,,2013-02-25 11:11:00,
2013-02-25 05:21:00,21.0,21.0,30.06,NW,316,0.0,0.0,99,0.00,,,0.00,,2013-02-25 11:21:00,
2013-02-25 05:32:00,21.0,21.0,30.08,NW,316,0.0,0.0,99,0.00,,,0.00,,2013-02-25 11:32:00,
2013-02-25 05:42:00,21.0,21.0,30.08,NW,316,0.0,0.0,99,0.00,,,0.00,,2013-02-25 11:42:00,
2013-02-25 05:52:00,21.0,21.0,30.08,WNW,291,0.0,0.0,99,0.00,,,0.00,,2013-02-25 11:52:00,
2013-02-25 06:01:00,21.0,21.0,30.09,WNW,291,0.0,0.0,99,0.00,,,0.00,,2013-02-25 12:01:00,
2013-02-25 06:11:00,21.0,21.0,30.09,WNW,291,0.0,0.0,99,0.00,,,0.00,,2013-02-25 12:11:00,
2013-02-25 06:21:00,21.0,21.0,30.08,WNW,291,0.0,0.0,99,0.00,,,0.00,,2013-02-25 12:21:00,
2013-02-25 06:32:00,21.0,21.0,30.10,WNW,291,0.0,0.0,99,0.00,,,0.00,,2013-02-25 12:32:00,
2013-02-25 06:42:00,21.0,21.0,30.10,WNW,291,0.0,0.0,99,0.00,,,0.00,,2013-02-25 12:42:00,
2013-02-25 06:55:00,21.0,21.0,30.09,WNW,291,0.0,0.0,99,0.00,,,0.00,,2013-02-25 12:55:00,
2013-02-25 07:02:00,20.0,20.0,30.09,WNW,291,0.0,0.0,99,0.00,,,0.00,,2013-02-25 13:02:00,
2013-02-25 07:12:00,20.0,20.0,30.09,WNW,291,0.0,0.0,99,0.00,,,0.00,,2013-02-25 13:12:00,
2013-02-25 07:22:00,20.0,20.0,30.09,WNW,291,0.0,0.0,99,0.00,,,0.00,,2013-02-25 13:22:00,
2013-02-25 07:32:00,20.0,20.0,30.09,WNW,291,0.0,0.0,99,0.00,,,0.00,,2013-02-25 13:32:00,
2013-02-25 07:42:00,20.0,20.0,30.09,WNW,291,0.0,0.0,99,0.00,,,0.00,,2013-02-25 13:42:00,
2013-02-25 07:52:00,20.0,20.0,30.09,WNW,291,0.0,0.0,99,0.00,,,0.00,,2013-02-25 13:52:00,
2013-02-25 08:03:00,20.0,20.0,30.09,WNW,291,0.0,0.0,99,0.00,,,0.00,,2013-02-25 14:03:00,
2013-02-25 08:17:00,20.0,20.0,30.09,WNW,291,0.0,0.0,99,0.00,,,0.00,,2013-02-25 14:17:00,
2013-02-25 08:32:00,18.0,18.0,30.09,NNW,332,1.0,3.0,99,0.00,,,0.00,,2013-02-25 14:32:00,
2013-02-25 08:42:00,18.0,18.0,30.09,NNW,332,1.0,3.0,99,0.00,,,0.00,,2013-02-25 14:42:00,
2013-02-25 08:52:00,18.0,18.0,30.09,NNW,333,0.0,0.0,99,0.00,,,0.00,,2013-02-25 14:52:00,
2013-02-25 09:02:00,18.0,18.0,30.09,NNW,333,0.0,0.0,99,0.00,,,0.00,,2013-02-25 15:02:00,
2013-02-25 09:11:00,18.0,18.0,30.09,NNW,333,0.0,0.0,99,0.00,,,0.00,,2013-02-25 15:11:00,
2013-02-25 09:21:00,18.0,18.0,30.09,NNW,333,0.0,0.0,99,0.00,,,0.00,,2013-02-25 15:21:00,
2013-02-25 09:32:00,20.0,20.0,30.10,NNW,333,0.0,0.0,99,0.00,,,0.00,,2013-02-25 15:32:00,
2013-02-25 09:41:00,20.0,20.0,30.10,NNW,333,0.0,0.0,99,0.00,,,0.00,,2013-02-25 15:41:00,
2013-02-25 09:52:00,21.0,21.0,30.10,NNW,333,0.0,0.0,99,0.00,,,0.00,,2013-02-25 15:52:00,
2013-02-25 10:01:00,22.0,22.0,30.09,NNW,333,0.0,0.0,99,0.00,,,0.00,,2013-02-25 16:01:00,
2013-02-25 10:11:00,22.0,22.0,30.09,NNW,333,0.0,0.0,99,0.00,,,0.00,,2013-02-25 16:11:00,
2013-02-25 10:21:00,24.0,24.0,30.09,NNW,333,0.0,0.0,99,0.00,,,0.00,,2013-02-25 16:21:00,
2013-02-25 10:31:00,25.0,25.0,30.09,East,100,0.0,0.0,99,0.00,,,0.00,,2013-02-25 16:31:00,
2013-02-25 10:42:00,25.0,25.0,30.09,East,100,0.0,0.0,99,0.00,,,0.00,,2013-02-25 16:42:00,
2013-02-25 10:52:00,25.0,25.0,30.09,North,9,2.0,3.0,99,0.00,,,0.00,,2013-02-25 16:52:00,
2013-02-25 11:01:00,25.0,25.0,30.09,North,357,0.0,0.0,99,0.00,,,0.00,,2013-02-25 17:01:00,
2013-02-25 11:11:00,25.0,25.0,30.09,North,357,0.0,0.0,99,0.00,,,0.00,,2013-02-25 17:11:00,
2013-02-25 11:21:00,26.0,26.0,30.09,North,357,0.0,0.0,99,0.00,,,0.00,,2013-02-25 17:21:00,
2013-02-25 11:31:00,26.0,26.0,30.09,North,357,0.0,0.0,99,0.00,,,0.00,,2013-02-25 17:31:00,
2013-02-25 11:41:00,26.0,26.0,30.09,North,357,0.0,0.0,99,0.00,,,0.00,,2013-02-25 17:41:00,
2013-02-25 11:52:00,27.0,27.0,30.09,West,276,2.0,2.0,99,0.00,,,0.00,,2013-02-25 17:52:00,
2013-02-25 12:01:00,26.0,26.0,30.09,ENE,61,0.0,0.0,99,0.00,,,0.00,,2013-02-25 18:01:00,
2013-02-25 12:12:00,26.0,26.0,30.09,ENE,61,0.0,0.0,99,0.00,,,0.00,,2013-02-25 18:12:00,
2013-02-25 12:21:00,27.0,27.0,30.09,NW,307,1.0,3.0,99,0.00,,,0.00,,2013-02-25 18:21:00,
2013-02-25 12:32:00,28.0,28.0,30.07,NNW,336,3.0,6.0,99,0.00,,,0.00,,2013-02-25 18:32:00,
2013-02-25 12:41:00,28.0,28.0,30.07,NNW,336,3.0,6.0,99,0.00,,,0.00,,2013-02-25 18:41:00,
2013-02-25 12:52:00,29.0,28.0,30.06,North,356,6.0,7.0,96,0.00,,,0.00,,2013-02-25 18:52:00,
2013-02-25 13:01:00,29.0,28.0,30.04,NNW,343,5.0,7.0,95,0.00,,,0.00,,2013-02-25 19:01:00,
2013-02-25 13:11:00,29.0,28.0,30.04,NNW,343,5.0,7.0,95,0.00,,,0.00,,2013-02-25 19:11:00,
2013-02-25 13:21:00,30.0,29.0,30.04,NNW,336,5.0,9.0,95,0.00,,,0.00,,2013-02-25 19:21:00,
2013-02-25 13:31:00,30.0,28.0,30.03,North,356,7.0,8.0,94,0.00,,,0.00,,2013-02-25 19:31:00,
2013-02-25 13:41:00,30.0,28.0,30.03,North,356,7.0,8.0,94,0.00,,,0.00,,2013-02-25 19:41:00,
2013-02-25 13:52:00,30.0,28.0,30.03,NNE,22,5.0,8.0,92,0.00,,,0.00,,2013-02-25 19:52:00,
2013-02-25 14:01:00,30.0,28.0,30.03,North,3,5.0,6.0,93,0.00,,,0.00,,2013-02-25 20:01:00,
2013-02-25 14:11:00,30.0,28.0,30.03,North,3,5.0,6.0,93,0.00,,,0.00,,2013-02-25 20:11:00,
2013-02-25 14:21:00,31.0,29.0,30.02,North,351,5.0,7.0,92,0.00,,,0.00,,2013-02-25 20:21:00,
2013-02-25 14:31:00,31.0,29.0,30.02,NNW,346,3.0,6.0,92,0.00,,,0.00,,2013-02-25 20:31:00,
2013-02-25 14:41:00,31.0,29.0,30.02,NNW,346,3.0,6.0,92,0.00,,,0.00,,2013-02-25 20:41:00,
2013-02-25 14:52:00,31.0,30.0,30.02,North,9,2.0,6.0,95,0.00,,,0.00,,2013-02-25 20:52:00,
2013-02-25 15:01:00,30.0,29.0,30.03,North,1,5.0,7.0,95,0.00,,,0.00,,2013-02-25 21:01:00,
2013-02-25 15:11:00,30.0,29.0,30.03,North,1,5.0,7.0,95,0.00,,,0.00,,2013-02-25 21:11:00,
2013-02-25 15:21:00,30.0,29.0,30.03,North,351,5.0,6.0,95,0.00,,,0.00,,2013-02-25 21:21:00,
2013-02-25 15:31:00,29.0,28.0,30.03,North,6,6.0,8.0,95,0.00,,,0.00,,2013-02-25 21:31:00,
2013-02-25 15:42:00,29.0,28.0,30.03,North,6,6.0,8.0,95,0.00,,,0.00,,2013-02-25 21:42:00,
2013-02-25 15:52:00,29.0,28.0,30.02,North,355,6.0,7.0,96,0.00,,,0.00,,2013-02-25 21:52:00,
2013-02-25 16:01:00,29.0,28.0,30.03,NNE,22,3.0,5.0,97,0.00,,,0.00,,2013-02-25 22:01:00,
2013-02-25 16:11:00,29.0,28.0,30.03,NNE,22,3.0,5.0,97,0.00,,,0.00,,2013-02-25 22:11:00,
2013-02-25 16:21:00,29.0,28.0,30.02,NNW,343,3.0,5.0,97,0.00,,,0.00,,2013-02-25 22:21:00,
2013-02-25 16:32:00,29.0,29.0,30.02,North,357,6.0,8.0,98,0.00,,,0.00,,2013-02-25 22:32:00,
2013-02-25 16:42:00,29.0,29.0,30.02,North,357,6.0,8.0,98,0.00,,,0.00,,2013-02-25 22:42:00,
2013-02-25 16:52:00,29.0,29.0,30.01,North,354,2.0,5.0,99,0.00,,,0.00,,2013-02-25 22:52:00,
2013-02-25 17:01:00,29.0,29.0,30.02,North,10,1.0,2.0,99,0.00,,,0.00,,2013-02-25 23:01:00,
2013-02-25 17:11:00,29.0,29.0,30.02,North,10,1.0,2.0,99,0.00,,,0.00,,2013-02-25 23:11:00,
2013-02-25 17:22:00,29.0,29.0,30.01,North,5,3.0,6.0,99,0.00,,,0.00,,2013-02-25 23:22:00,
2013-02-25 17:31:00,28.0,28.0,30.01,NNE,21,0.0,3.0,99,0.00,,,0.00,,2013-02-25 23:31:00,
2013-02-25 17:41:00,28.0,28.0,30.01,NNE,21,0.0,3.0,99,0.00,,,0.00,,2013-02-25 23:41:00,
2013-02-25 17:52:00,28.0,28.0,30.01,NNE,16,0.0,1.0,99,0.00,,,0.00,,2013-02-25 23:52:00,
2013-02-25 18:01:00,28.0,28.0,30.01,NNE,22,2.0,6.0,99,0.00,,,0.00,,2013-02-26 00:01:00,
2013-02-25 18:11:00,28.0,28.0,30.01,NNE,22,2.0,6.0,99,0.00,,,0.00,,2013-02-26 00:11:00,
2013-02-25 18:21:00,28.0,28.0,30.01,NNE,17,1.0,0.0,99,0.00,,,0.00,,2013-02-26 00:21:00,
2013-02-25 18:32:00,28.0,28.0,30.01,North,8,0.0,0.0,99,0.00,,,0.00,,2013-02-26 00:32:00,
2013-02-25 18:41:00,28.0,28.0,30.01,North,8,0.0,0.0,99,0.00,,,0.00,,2013-02-26 00:41:00,
2013-02-25 18:52:00,28.0,28.0,30.01,ENE,67,3.0,5.0,99,0.00,,,0.00,,2013-02-26 00:52:00,
2013-02-25 19:02:00,28.0,28.0,30.01,NNE,22,3.0,5.0,99,0.00,,,0.00,,2013-02-26 01:02:00,
2013-02-25 19:11:00,28.0,28.0,30.01,NNE,22,3.0,5.0,99,0.00,,,0.00,,2013-02-26 01:11:00,
2013-02-25 19:21:00,28.0,28.0,30.01,NNE,26,3.0,6.0,99,0.00,,,0.00,,2013-02-26 01:21:00,
2013-02-25 19:31:00,27.0,27.0,30.01,North,9,5.0,6.0,99,0.00,,,0.00,,2013-02-26 01:31:00,
2013-02-25 19:41:00,27.0,27.0,30.01,North,9,5.0,6.0,99,0.00,,,0.00,,2013-02-26 01:41:00,
2013-02-25 19:52:00,28.0,28.0,30.01,NNE,16,2.0,3.0,99,0.00,,,0.00,,2013-02-26 01:52:00,
2013-02-25 20:01:00,27.0,27.0,30.00,NNE,17,2.0,5.0,99,0.00,,,0.00,,2013-02-26 02:01:00,
2013-02-25 20:11:00,27.0,27.0,30.00,NNE,17,2.0,5.0,99,0.00,,,0.00,,2013-02-26 02:11:00,
2013-02-25 20:21:00,28.0,28.0,30.00,NNE,16,3.0,5.0,99,0.00,,,0.00,,2013-02-26 02:21:00,
2013-02-25 20:32:00,28.0,28.0,29.99,North,2,0.0,2.0,99,0.00,,,0.00,,2013-02-26 02:32:00,
2013-02-25 20:41:00,28.0,28.0,29.99,North,2,0.0,2.0,99,0.00,,,0.00,,2013-02-26 02:41:00,
2013-02-25 20:52:00,28.0,28.0,29.98,NNE,24,0.0,0.0,99,0.00,,,0.00,,2013-02-26 02:52:00,
2013-02-25 21:01:00,28.0,28.0,29.97,North,2,1.0,2.0,99,0.00,,,0.00,,2013-02-26 03:01:00,
2013-02-25 21:11:00,28.0,28.0,29.97,North,2,1.0,2.0,99,0.00,,,0.00,,2013-02-26 03:11:00,
2013-02-25 21:21:00,28.0,28.0,29.96,NNE,28,3.0,5.0,99,0.00,,,0.00,,2013-02-26 03:21:00,
2013-02-25 21:32:00,28.0,28.0,29.96,North,7,1.0,5.0,99,0.00,,,0.00,,2013-02-26 03:32:00,
2013-02-25 21:41:00,28.0,28.0,29.96,North,7,1.0,5.0,99,0.00,,,0.00,,2013-02-26 03:41:00,
2013-02-25 21:52:00,28.0,28.0,29.96,North,8,0.0,0.0,99,0.00,,,0.00,,2013-02-26 03:52:00,
2013-02-25 22:01:00,28.0,28.0,29.96,NNE,16,1.0,5.0,99,0.00,,,0.00,,2013-02-26 04:01:00,
2013-02-25 22:11:00,28.0,28.0,29.96,NNE,16,1.0,5.0,99,0.00,,,0.00,,2013-02-26 04:11:00,
2013-02-25 22:21:00,28.0,28.0,29.96,NNE,14,2.0,2.0,99,0.00,,,0.00,,2013-02-26 04:21:00,
2013-02-25 22:32:00,27.0,27.0,29.96,NNE,26,2.0,5.0,99,0.00,,,0.00,,2013-02-26 04:32:00,
2013-02-25 22:42:00,27.0,27.0,29.96,NNE,26,2.0,5.0,99,0.00,,,0.00,,2013-02-26 04:42:00,
2013-02-25 22:52:00,27.0,27.0,29.96,NNE,15,5.0,7.0,99,0.00,,,0.00,,2013-02-26 04:52:00,
2013-02-25 23:01:00,26.0,26.0,29.97,NE,49,3.0,5.0,99,0.00,,,0.00,,2013-02-26 05:01:00,
2013-02-25 23:11:00,26.0,26.0,29.96,NE,42,3.0,8.0,99,0.00,,,0.00,,2013-02-26 05:11:00,
2013-02-25 23:21:00,26.0,26.0,29.96,NE,42,3.0,8.0,99,0.00,,,0.00,,2013-02-26 05:21:00,
2013-02-25 23:31:00,25.0,25.0,29.97,East,83,5.0,9.0,99,0.00,,,0.00,,2013-02-26 05:31:00,
2013-02-25 23:42:00,25.0,25.0,29.97,East,83,5.0,9.0,99,0.00,,,0.00,,2013-02-26 05:42:00,
2013-02-25 23:52:00,24.0,24.0,29.97,NE,54,2.0,8.0,99,0.00,,,0.00,,2013-02-26 05:52:00,